Weather History for Athens, OH

Change the Weather History Date:

Thursday, May 8, 2014

  Actual Average (KPKB) Record (KPKB)
Temperature  
Mean Temperature 68 °F 60 °F  
Max Temperature 84 °F 72 °F 91 °F (1940)
Min Temperature 53 °F 48 °F 33 °F (1947)
Cooling Degree Days 4 1  
Year to date cooling degree days 29  
Growing Degree Days 18 (Base 50)    
Moisture  
Dew Point 54 °F    
Average Humidity 62    
Maximum Humidity 92    
Minimum Humidity 32    
Precipitation  
Precipitation 0.00 in 0.13 in 2.28 in (2012)
Month to date precipitation 1.03  
Year to date precipitation 13.68  
Snow  
Snow 0.00 in - - ()
Month to date snowfall  
Since 1 July snowfall  
Since 1 September snowfall  
Snow Depth -    
Sea Level Pressure  
Sea Level Pressure 30.06 in    
Wind  
Wind Speed 3 mph (SW)    
Max Wind Speed 15 mph    
Max Gust Speed 24 mph    
Visibility 10 miles    
Events      
T = Trace of Precipitation, MM = Missing Value Source: NWS Daily Summary

Daily Weather History Graph

Daily Weather History Graph

Search for Another Location

Airport:

Trip Planner

Search our weather history database for the weather conditions in past years. The results will help you decide how hot, cold, wet, or windy it might be!

Date:

Astronomy

May. 08, 2014 Rise Set
Actual Time 6:22 AM EDT 8:28 PM EDT
Civil Twilight 5:52 AM EDT 8:58 PM EDT
Nautical Twilight 5:16 AM EDT 9:34 PM EDT
Astronomical Twilight 4:37 AM EDT 10:14 PM EDT
Moon 2:30 PM EDT (5/8) 2:50 AM EDT (5/8)
Length of Visible Light 15h 05m
Length of Day
14h 06m
Waxing Gibbous, 64% of the Moon is Illuminated
May 8
Waxing Gibbous
May 14
Full
May 21
Last Quarter
May 28
New
Jun 5
First Quarter

Hourly Weather History & Observations

Time (EDT) Temp. Heat Index Dew Point Humidity Pressure Visibility Wind Dir Wind Speed Gust Speed Precip Events Conditions
12:35 AM 56.3 °F - 52.0 °F 85% 30.01 in 10.0 mi Calm Calm - N/A   Clear
12:55 AM 56.7 °F - 50.5 °F 80% 30.00 in 10.0 mi Calm Calm - N/A   Clear
1:15 AM 54.7 °F - 50.2 °F 85% 30.00 in 10.0 mi Calm Calm - N/A   Clear
1:35 AM 54.0 °F - 50.5 °F 88% 30.00 in 10.0 mi Calm Calm - N/A   Clear
1:55 AM 54.9 °F - 51.3 °F 88% 30.00 in 10.0 mi Calm Calm - N/A   Clear
2:15 AM 54.7 °F - 51.4 °F 89% 30.00 in 10.0 mi Calm Calm - N/A   Clear
2:35 AM 54.3 °F - 50.9 °F 88% 30.01 in 10.0 mi Calm Calm - N/A   Clear
2:55 AM 54.3 °F - 51.1 °F 89% 30.00 in 10.0 mi Calm Calm - N/A   Clear
3:15 AM 54.7 °F - 51.8 °F 90% 30.02 in 10.0 mi West 3.5 mph - N/A   Clear
3:35 AM 55.2 °F - 52.0 °F 89% 30.02 in 10.0 mi Calm Calm - N/A   Clear
3:55 AM 56.7 °F - 52.7 °F 87% 30.04 in 10.0 mi Calm Calm - N/A   Clear
4:15 AM 56.5 °F - 52.3 °F 86% 30.06 in 10.0 mi Calm Calm - N/A   Clear
4:35 AM 56.5 °F - 52.2 °F 85% 30.06 in 10.0 mi Calm Calm - N/A   Clear
4:55 AM 55.4 °F - 51.8 °F 88% 30.06 in 10.0 mi Calm Calm - N/A   Clear
5:15 AM 54.5 °F - 51.4 °F 89% 30.06 in 10.0 mi Calm Calm - N/A   Clear
5:35 AM 53.6 °F - 50.9 °F 91% 30.07 in 10.0 mi Calm Calm - N/A   Clear
5:55 AM 53.6 °F - 51.1 °F 91% 30.07 in 10.0 mi Calm Calm - N/A   Clear
6:15 AM 53.6 °F - 51.3 °F 92% 30.08 in 10.0 mi Calm Calm - N/A   Clear
6:35 AM 53.6 °F - 51.1 °F 91% 30.09 in 10.0 mi Calm Calm - N/A   Clear
6:55 AM 53.6 °F - 51.1 °F 91% 30.10 in 10.0 mi Calm Calm - N/A   Clear
7:15 AM 57.7 °F - 52.7 °F 83% 30.10 in 10.0 mi Calm Calm - N/A   Clear
7:35 AM 60.6 °F - 52.9 °F 76% 30.10 in 10.0 mi Calm Calm - N/A   Clear
7:55 AM 64.2 °F - 52.7 °F 66% 30.11 in 10.0 mi SSW 4.6 mph - N/A   Clear
8:15 AM 64.6 °F - 52.9 °F 66% 30.11 in 10.0 mi SSW 5.8 mph - N/A   Clear
8:35 AM 65.5 °F - 53.6 °F 65% 30.12 in 10.0 mi South 4.6 mph - N/A   Clear
8:55 AM 68.2 °F - 54.3 °F 61% 30.13 in 10.0 mi South 5.8 mph - N/A   Clear
9:15 AM 68.5 °F - 55.0 °F 62% 30.14 in 10.0 mi SSW 6.9 mph - N/A   Clear
9:35 AM 71.1 °F - 55.9 °F 59% 30.14 in 10.0 mi South 5.8 mph - N/A   Clear
9:55 AM 72.7 °F - 56.3 °F 56% 30.14 in 10.0 mi SSW 5.8 mph - N/A   Clear
10:15 AM 74.5 °F - 56.3 °F 53% 30.14 in 10.0 mi SW 12.7 mph 18.4 mph N/A   Clear
10:35 AM 75.9 °F - 57.0 °F 52% 30.13 in 10.0 mi SSW 12.7 mph 16.1 mph N/A   Clear
10:55 AM 76.3 °F - 56.8 °F 51% 30.12 in 10.0 mi SW 11.5 mph 19.6 mph N/A   Clear
11:15 AM 77.2 °F - 57.7 °F 51% 30.12 in 10.0 mi WSW 9.2 mph 21.9 mph N/A   Scattered Clouds
11:35 AM 77.9 °F - 58.6 °F 51% 30.11 in 10.0 mi WSW 11.5 mph 21.9 mph N/A   Scattered Clouds
11:55 AM 78.4 °F - 59.0 °F 51% 30.11 in 10.0 mi WSW 11.5 mph - N/A   Scattered Clouds
12:15 PM 78.3 °F - 58.3 °F 50% 30.11 in 10.0 mi WSW 11.5 mph 19.6 mph N/A   Scattered Clouds
12:35 PM 79.2 °F - 58.8 °F 50% 30.11 in 10.0 mi WSW 15.0 mph 19.6 mph N/A   Scattered Clouds
12:55 PM 79.2 °F - 57.9 °F 48% 30.10 in 10.0 mi WSW 10.4 mph 18.4 mph N/A   Scattered Clouds
1:15 PM 80.6 °F 80.9 °F 58.3 °F 46% 30.09 in 10.0 mi SSW 8.1 mph 19.6 mph N/A   Scattered Clouds
1:35 PM 80.4 °F 80.8 °F 57.7 °F 46% 30.09 in 10.0 mi SSW 9.2 mph 17.3 mph N/A   Scattered Clouds
1:55 PM 81.9 °F 82.1 °F 59.4 °F 46% 30.08 in 10.0 mi SW 8.1 mph - N/A   Scattered Clouds
2:15 PM 81.9 °F 81.7 °F 57.2 °F 43% 30.07 in 10.0 mi WSW 11.5 mph 24.2 mph N/A   Scattered Clouds
2:35 PM 82.4 °F 81.9 °F 56.5 °F 41% 30.07 in 10.0 mi SSW 9.2 mph 17.3 mph N/A   Scattered Clouds
2:55 PM 82.6 °F 82.1 °F 56.8 °F 41% 30.06 in 10.0 mi SW 13.8 mph 21.9 mph N/A   Scattered Clouds
3:15 PM 84.0 °F 83.2 °F 56.5 °F 39% 30.06 in 10.0 mi SW 10.4 mph - N/A   Scattered Clouds
3:35 PM 82.9 °F 82.1 °F 55.9 °F 39% 30.06 in 10.0 mi SW 10.4 mph 20.7 mph N/A   Scattered Clouds
3:55 PM 84.0 °F 83.0 °F 55.6 °F 38% 30.04 in 10.0 mi WSW 13.8 mph 24.2 mph N/A   Scattered Clouds
4:15 PM 84.4 °F 83.2 °F 55.8 °F 37% 30.03 in 10.0 mi WSW 12.7 mph 16.1 mph N/A   Clear
4:35 PM 84.2 °F 82.9 °F 54.9 °F 36% 30.03 in 10.0 mi SW 11.5 mph 18.4 mph N/A   Clear
4:55 PM 84.4 °F 82.9 °F 53.6 °F 35% 30.02 in 10.0 mi WSW 9.2 mph 17.3 mph N/A   Clear
5:15 PM 84.4 °F 83.1 °F 54.7 °F 36% 30.02 in 10.0 mi SSW 10.4 mph - N/A   Clear
5:35 PM 84.7 °F 83.4 °F 54.7 °F 36% 30.02 in 10.0 mi SW 4.6 mph - N/A   Clear
5:55 PM 84.2 °F 82.8 °F 53.8 °F 35% 30.01 in 10.0 mi SSW 5.8 mph - N/A   Clear
6:15 PM 84.4 °F - 52.3 °F 33% 30.01 in 10.0 mi SSW 6.9 mph - N/A   Clear
6:35 PM 84.0 °F - 52.7 °F 34% 30.01 in 10.0 mi SSW 8.1 mph - N/A   Clear
6:55 PM 83.5 °F - 50.9 °F 32% 30.01 in 10.0 mi SSW 8.1 mph 18.4 mph N/A   Clear
7:15 PM 82.6 °F - 52.2 °F 35% 30.01 in 10.0 mi WSW 6.9 mph - N/A   Clear
7:35 PM 81.9 °F - 52.2 °F 36% 30.01 in 10.0 mi Calm Calm - N/A   Clear
7:55 PM 80.6 °F 80.2 °F 53.1 °F 38% 30.01 in 10.0 mi South 4.6 mph - N/A   Clear
8:15 PM 78.6 °F - 53.6 °F 42% 30.02 in 10.0 mi SSW 4.6 mph - N/A   Clear
8:35 PM 77.2 °F - 54.0 °F 44% 30.03 in 10.0 mi SSW 4.6 mph - N/A   Clear
8:55 PM 75.2 °F - 55.0 °F 49% 30.03 in 10.0 mi Calm Calm - N/A   Clear
9:15 PM 72.0 °F - 55.6 °F 56% 30.04 in 10.0 mi Calm Calm - N/A   Clear
9:35 PM 68.5 °F - 56.3 °F 65% 30.04 in 10.0 mi Calm Calm - N/A   Clear
9:55 PM 66.0 °F - 57.0 °F 73% 30.06 in 10.0 mi Calm Calm - N/A   Clear
10:15 PM 67.8 °F - 55.6 °F 65% 30.06 in 10.0 mi Calm Calm - N/A   Clear
10:35 PM 64.6 °F - 56.7 °F 75% 30.06 in 10.0 mi Calm Calm - N/A   Clear
10:55 PM 64.8 °F - 56.3 °F 74% 30.07 in 10.0 mi Calm Calm - N/A   Clear
11:15 PM 63.5 °F - 55.8 °F 76% 30.06 in 10.0 mi Calm Calm - N/A   Clear
11:35 PM 63.0 °F - 55.4 °F 76% 30.06 in 10.0 mi Calm Calm - N/A   Clear
11:55 PM 62.1 °F - 55.8 °F 80% 30.06 in 10.0 mi Calm Calm - N/A   Clear